Regional Weather Roundup
Issued by NWS

Home | Current Version | Previous Version | Text Only | Print | Product List | Glossary Off
Versions: 1 2 3 4 5 6 7 8 9 10 11 12 13 14 15 16 17 18 19 20 21 22 23 24 25 26 27 28 29 30 31 32 33 34 35 36 37 38 39 40 41 42 43 44 45 46 47 48 49 50

000
ASUS43 KIND 252059
RWRIN

WEATHER ROUNDUP FOR INDIANA
NATIONAL WEATHER SERVICE INDIANAPOLIS IN
500 PM EDT SAT MAR 25 2017

NOTE: "FAIR" INDICATES FEW OR NO CLOUDS BELOW 12,000 FEET WITH NO
SIGNIFICANT WEATHER AND/OR OBSTRUCTIONS TO VISIBILITY.

* - STATION DOES NOT REPORT WEATHER SUCH AS PRECIPITATION OR FOG.

+ - STATION NOT QUALITY CONTROLLED BY THE NATIONAL WEATHER SERVICE.
    USE DATA WITH CAUTION...ESPECIALLY DEWPOINT AND RELATIVE
    HUMIDITY OBSERVATIONS.

INZ001>003-010>013-019-020-252200-
NORTHWEST INDIANA

CITY           SKY/WX    TMP DP  RH WIND       PRES   REMARKS
GARY /AIRPORT/ LGT RAIN  48  46  93 CALM      29.96F
MONTICELLO +   CLOUDY    69  52  54 S6        29.95R

$$

LMZ046-743>745-252200-
SOUTHERN LAKE MICHIGAN

STATION/POSITION TIME  TEMP    WIND        PRES    WAVE
                       AIR SEA DIR/SP/G            HT
                 (UTC) (F)     (DEG/KT/KT) (MB)    (FT)
BURNS HARBOR     2040   47      60/  7/  8 1014.9F
MICHIGAN CITY    2030   60      90/ 14/ 16   N/A

$$

INZ004-005-014>016-021>024-252200-
NORTH CENTRAL INDIANA

CITY           SKY/WX    TMP DP  RH WIND       PRES   REMARKS
ELKHART        MOSUNNY   57  48  72 E12       30.02S
GOSHEN         CLOUDY    59  47  64 E17       30.02R
SOUTH BEND     CLOUDY    57  49  74 E14G21    30.01F

$$

INZ006>009-017-018-025>027-252200-
NORTHEAST INDIANA

CITY           SKY/WX    TMP DP  RH WIND       PRES   REMARKS
ANGOLA *+      SUNNY     52  43  71 E21       30.09R
FORT WAYNE     CLOUDY    61  48  62 E20       30.03S
KENDALLVILLE + CLOUDY    55  47  73 E15G21    30.07R

$$

INZ028-029-035-036-043>045-051>053-252200-
WEST CENTRAL INDIANA

CITY           SKY/WX    TMP DP  RH WIND       PRES   REMARKS
CRAWFORDSVL +  DRIZZLE   67  52  58 S15G23    29.96R
GREENCASTLE +  PTSUNNY   70  50  49 S6        29.96S
LAFAYETTE      CLOUDY    69  54  58 S7        29.94S
TERRE HAUTE    LGT RAIN  68  54  60 S16       29.94F

$$

INZ030>032-037>040-046>048-054>057-064-065-252200-
CENTRAL INDIANA

CITY           SKY/WX    TMP DP  RH WIND       PRES   REMARKS
INDIANAPOLIS   CLOUDY    74  51  44 S14       29.95F
-EAGLE CREEK   CLOUDY    74  50  42 S15G22    29.95F
KOKOMO +       CLOUDY    70  54  56 S18       29.98F
SHELBYVILLE    MOSUNNY   76  50  40 S15       29.96F

$$

INZ033-034-041-042-049-050-058-059-252200-
EAST CENTRAL INDIANA

CITY           SKY/WX    TMP DP  RH WIND       PRES   REMARKS
MUNCIE         CLOUDY    75  51  43 SE13      29.99F
RICHMOND +     PTSUNNY   72  52  49 S14G20    30.03F

$$

INZ060-061-067>069-081>083-085>088-252200-
SOUTHWEST INDIANA

CITY           SKY/WX    TMP DP  RH WIND       PRES   REMARKS
EVANSVILLE     LGT RAIN  71  51  49 S13G22    29.94S
HUNTINGBURG *+ MOSUNNY   71  54  54 SW13G20   29.95F

$$

INZ062-063-066-070>080-084-089>092-252200-
SOUTH CENTRAL AND SOUTHEAST INDIANA

CITY           SKY/WX    TMP DP  RH WIND       PRES   REMARKS
BLOOMINGTON    CLOUDY    74  49  41 S10G24    29.94F
MADISON *+     CLOUDY    75  45  33 S14       30.01S
SEYMOUR +      CLOUDY    77  52  41 S16       29.97S

$$




USA.gov is the U.S. government's official web portal to all federal, state and local government web resources and services.